Location: La Savane
(18.0962°N, 63.0646°W)
Time: 17:50:09
(UTC+00:00)

CZ-4B R/B - Pass Details

Date: 29 October 2020
Orbit: 388 x 462 km, 97.6° (Epoch: 27 November)

Event Time Altitude Azimuth Distance (km) Brightness Sun altitude
Rises 21:53:41 0° 359° (N) 2,315 4.9 -3.7°
Reaches altitude 10° 21:55:47 10° 349° (N) 1,444 4.0 -4.2°
Maximum altitude 21:58:35 32° 283° (WNW) 694 3.2 -4.9°
Drops below altitude 10° 22:01:20 10° 218° (SW) 1,420 4.8 -5.5°
Sets 22:03:23 0° 208° (SSW) 2,268 5.6 -6.0°
